FW4043 Weather Reports


time (UTC)temp
C
wind
direction
speed
KPH
gust
KPH
rain 1hr
cm
rain 24hr
cm
rain mn
cm
humidity
%
barometer
mb
20260502163059 17 55 12.9 29.0 0.00 4.83 0.00 85 1022.3
20260502163006 17 22 12.9 29.0 0.00 4.83 0.00 85 1022.4
20260502161546 17 51 12.9 29.0 0.00 4.83 0.00 86 1022.2
20260502151526 16 10 12.9 20.9 0.00 4.83 0.00 90 1022.2
20260502123016 12 12 8.0 17.7 0.00 4.90 0.00 92 1020.5
20260502121520 12 35 6.4 16.1 0.00 4.90 0.00 92 1020.2
20260502114526 12 28 8.0 17.7 0.00 4.90 0.00 92 1019.8
20260502113035 12 22 8.0 16.1 0.00 4.90 0.00 92 1019.6
20260502111541 12 30 8.0 17.7 0.00 4.90 0.00 92 1019.3
20260502110023 12 347 12.9 20.9 0.00 4.93 0.00 92 1019.2
20260502104533 12 24 8.0 14.5 0.00 4.93 0.00 92 1019.2
20260502103030 12 34 8.0 14.5 0.00 4.93 0.00 92 1019.1
20260502101538 12 53 4.8 8.0 0.00 4.93 0.00 93 1018.9
20260502091528 12 63 8.0 14.5 0.00 4.93 0.00 93 1017.6
20260502080103 13 74 12.9 20.9 0.00 4.93 0.00 93 1017.4
20260502070058 13 11 14.5 22.5 0.00 4.93 0.00 93 1017.4
20260502070001 13 19 12.9 22.5 0.00 4.93 0.00 93 1017.5
20260502064513 13 40 9.7 17.7 0.00 4.93 0.00 93 1017.3
20260502063014 13 53 12.9 29.0 0.00 4.93 0.00 93 1017.2
20260502061524 13 51 8.0 25.7 0.00 4.93 0.00 93 1017.0
20260502060032 13 5 14.5 29.0 0.00 5.13 0.00 93 1016.9
20260502054541 13 16 12.9 20.9 0.00 5.13 0.00 93 1016.8
20260502053106 13 44 11.3 20.9 0.00 5.13 0.00 93 1016.8
20260502051553 13 51 12.9 20.9 0.00 5.13 0.00 93 1016.9
20260502050012 13 46 12.9 20.9 0.00 5.23 5.13 93 1017.2
20260502044511 13 5 12.9 25.7 0.00 5.23 5.13 93 1016.9
20260502043016 13 5 12.9 22.5 0.00 5.23 5.13 93 1016.9
20260502041601 13 29 19.3 25.7 0.00 5.23 5.13 93 1016.8
20260502041503 13 360 19.3 25.7 0.00 5.23 5.13 93 1016.7
20260502040010 13 34 12.9 20.9 0.08 5.38 5.13 93 1016.8
20260502034512 13 25 11.3 20.9 0.08 5.38 5.13 93 1016.6
20260502033102 13 19 11.3 25.7 0.08 5.38 5.13 93 1016.4
20260502031506 14 30 12.9 32.2 0.08 5.38 5.13 93 1016.0
20260502030009 15 11 16.1 25.7 0.03 5.46 5.05 93 1015.3
20260502024531 15 25 6.4 19.3 0.05 5.46 5.05 93 1015.4
20260502023016 15 60 9.7 20.9 0.08 5.46 5.05 93 1014.9
20260502021524 15 30 12.9 19.3 0.10 5.46 5.05 93 1015.0
20260502020029 15 32 11.3 20.9 0.13 5.51 5.03 93 1015.1
20260502014539 15 339 11.3 19.3 0.20 5.49 5.00 93 1015.1
20260502013040 15 19 8.0 19.3 0.20 5.46 4.98 93 1014.8
20260502011557 15 36 11.3 17.7 0.20 5.44 4.95 93 1014.5
20260502010056 15 32 9.7 20.9 0.33 5.38 4.90 93 1013.9
20260502004509 15 355 8.0 25.7 0.64 5.33 4.80 93 1013.9
20260502003012 15 360 12.9 17.7 0.76 5.31 4.78 93 1012.8
20260502001521 15 46 11.3 24.1 0.71 5.23 4.75 93 1012.8
20260502000020 16 9 11.3 24.1 0.53 5.08 4.55 93 1013.3
20260501234524 16 22 12.9 24.1 0.15 4.70 4.17 93 1012.7
20260501233024 16 36 11.3 32.2 0.00 4.55 4.01 93 1012.0
20260501231533 16 28 11.3 35.4 0.00 4.55 4.01 93 1011.4
20260501224530 16 35 12.9 24.1 0.00 4.55 4.01 93 1011.8
20260501223036 16 55 17.7 32.2 0.03 4.55 4.01 93 1011.8
20260501221540 16 84 9.7 29.0 0.03 4.55 4.01 93 1011.6
20260501220050 17 30 16.1 22.5 0.03 4.55 4.01 93 1011.5
20260501214554 17 53 12.9 19.3 0.20 4.55 4.01 93 1011.8
20260501213004 17 26 16.1 24.1 0.91 4.52 3.99 93 1012.0
20260501211510 17 42 9.7 19.3 0.97 4.52 3.99 93 1011.7
20260501210016 17 71 8.0 22.5 1.02 4.52 3.99 93 1011.7
20260501204520 17 75 16.1 24.1 0.79 4.29 3.78 93 1010.7
20260501203038 17 80 11.3 24.1 0.15 3.61 3.07 93 1011.0
20260501201526 17 33 16.1 22.5 0.38 3.56 3.02 93 1009.9
20260501200034 17 86 12.9 19.3 0.76 3.51 2.97 93 1010.4
20260501194533 17 92 12.9 25.7 1.02 3.51 2.97 93 1010.6
20260501193039 17 80 9.7 19.3 1.07 3.45 2.90 93 1010.9
20260501191544 17 28 12.9 24.1 0.79 3.17 2.67 93 1010.3
20260501190053 17 87 16.1 29.0 0.48 2.77 2.24 93 1009.8
20260501184607 17 71 16.1 33.8 0.25 2.49 1.96 93 1009.7
20260501183058 17 51 14.5 20.9 0.18 2.39 1.85 93 1010.9
20260501181509 17 86 14.5 24.1 0.18 2.39 1.85 93 1010.6
20260501180018 17 55 12.9 22.5 0.13 2.29 1.75 93 1011.9
20260501174514 17 49 11.3 17.7 0.10 2.24 1.70 93 1011.7
20260501173023 17 74 11.3 20.9 0.20 2.21 1.68 93 1011.6
20260501171532 17 65 14.5 25.7 1.17 2.21 1.68 93 1011.3
20260501170031 17 5 14.5 20.9 1.32 2.16 1.63 93 1012.1
20260501164552 17 34 11.3 22.5 1.30 2.13 1.60 92 1012.2